GW5271 Weather Reports


time (UTC)temp
C
wind
direction
speed
KPH
gust
KPH
rain 1hr
cm
rain 24hr
cm
rain mn
cm
humidity
%
barometer
mb
20260508033907 2 206 0.0 0.0 0.00 0.10 0.10 96 1016.3
20260508033406 2 206 0.0 0.0 0.00 0.10 0.10 96 1016.3
20260508032903 2 163 0.0 0.0 0.00 0.10 0.10 96 1016.5
20260508032400 2 204 0.0 0.0 0.00 0.10 0.10 96 1016.2
20260508031857 2 141 0.0 0.0 0.00 0.10 0.10 96 1016.0
20260508031354 2 130 0.0 1.6 0.00 0.10 0.10 96 1016.0
20260508030850 2 277 0.0 1.6 0.00 0.10 0.10 94 1015.9
20260508030347 2 225 0.0 0.0 0.00 0.10 0.10 94 1015.9
20260508025844 2 225 0.0 0.0 0.00 0.10 0.10 94 1015.8
20260508025341 3 225 0.0 0.0 0.00 0.10 0.10 94 1015.9
20260508024838 2 226 0.0 0.0 0.00 0.10 0.10 93 1015.9
20260508024334 3 226 0.0 0.0 0.00 0.10 0.10 93 1015.8
20260508023831 3 226 0.0 0.0 0.00 0.10 0.10 92 1015.8
20260508023328 3 226 0.0 0.0 0.00 0.10 0.10 91 1015.6
20260508022825 3 226 0.0 0.0 0.00 0.10 0.10 92 1015.6
20260508022320 3 226 0.0 0.0 0.00 0.10 0.10 90 1015.6
20260508021818 3 226 0.0 0.0 0.00 0.10 0.10 89 1015.5
20260508021314 3 226 0.0 0.0 0.00 0.10 0.10 88 1015.4
20260508020810 4 226 0.0 0.0 0.00 0.10 0.10 87 1015.4
20260508020308 4 226 0.0 0.0 0.00 0.10 0.10 85 1015.3
20260508015804 5 226 0.0 0.0 0.00 0.10 0.10 85 1015.2
20260508015305 5 226 0.0 0.0 0.00 0.10 0.10 84 1015.1
20260508014759 5 226 0.0 1.6 0.00 0.10 0.10 83 1015.2
20260508014256 6 123 0.0 1.6 0.00 0.10 0.10 83 1015.2
20260508013751 6 300 0.0 1.6 0.00 0.10 0.10 81 1015.0
20260508013248 6 343 0.0 0.0 0.00 0.10 0.10 79 1014.9
20260508012745 6 343 0.0 0.0 0.00 0.10 0.10 75 1014.6
20260508012242 7 343 0.0 0.0 0.00 0.10 0.10 70 1014.6
20260508011740 8 343 0.0 0.0 0.00 0.10 0.10 68 1014.6
20260508011237 8 343 0.0 0.0 0.00 0.10 0.10 63 1014.3
20260508010734 9 308 0.0 0.0 0.00 0.10 0.10 59 1014.5
20260508010232 10 308 0.0 1.6 0.00 0.10 0.10 58 1014.5
20260508005729 10 14 0.0 1.6 0.00 0.10 0.10 54 1014.6
20260508005226 10 0 0.0 1.6 0.00 0.10 0.10 53 1014.3
20260508004721 10 315 1.6 4.8 0.00 0.10 0.10 52 1014.2
20260508004218 10 343 0.0 3.2 0.00 0.10 0.10 52 1014.2
20260508003714 11 20 1.6 4.8 0.00 0.10 0.10 52 1014.2
20260508003212 10 349 0.0 1.6 0.00 0.10 0.10 53 1014.1
20260508002708 10 26 1.6 3.2 0.00 0.10 0.10 57 1013.8
20260508002206 10 53 0.0 1.6 0.00 0.10 0.10 65 1013.8
20260508001701 11 309 0.0 1.6 0.00 0.10 0.10 62 1013.8
20260508001157 11 35 0.0 1.6 0.00 0.10 0.10 55 1013.6
20260508000654 11 324 1.6 3.2 0.00 0.10 0.10 56 1013.4
20260508000151 12 297 0.0 3.2 0.00 0.10 0.10 52 1013.3
20260507235647 12 297 0.0 3.2 0.00 0.10 0.10 52 1013.3
20260507235145 12 318 3.2 6.4 0.00 0.10 0.10 48 1013.4
20260507234642 12 297 1.6 4.8 0.00 0.10 0.10 47 1013.4
20260507234138 12 246 3.2 4.8 0.00 0.10 0.10 47 1013.2
20260507233635 13 304 6.4 6.4 0.00 0.10 0.10 47 1013.4
20260507233134 13 312 1.6 4.8 0.00 0.10 0.10 47 1013.3
20260507232629 13 293 6.4 9.7 0.00 0.10 0.10 46 1013.1
20260507232127 13 308 4.8 11.3 0.00 0.10 0.10 46 1013.3
20260507231623 13 314 3.2 11.3 0.00 0.10 0.10 46 1013.2
20260507231121 13 310 6.4 12.9 0.00 0.10 0.10 45 1013.0
20260507230617 13 335 6.4 11.3 0.00 0.10 0.10 44 1013.1
20260507230114 14 285 11.3 17.7 0.00 0.10 0.10 42 1013.1
20260507225609 14 268 9.7 14.5 0.00 0.10 0.10 45 1013.2
20260507225106 14 300 8.0 12.9 0.00 0.10 0.10 47 1013.1
20260507224601 14 298 6.4 14.5 0.00 0.10 0.10 45 1013.1
20260507224058 13 292 3.2 6.4 0.00 0.10 0.10 45 1013.0
20260507223554 13 302 6.4 11.3 0.00 0.10 0.10 46 1013.1
20260507223051 13 304 4.8 6.4 0.00 0.10 0.10 48 1013.1
20260507222548 13 277 1.6 9.7 0.00 0.10 0.10 47 1013.0
20260507222044 13 305 8.0 11.3 0.00 0.10 0.10 50 1012.9
20260507221541 14 330 6.4 9.7 0.00 0.10 0.10 49 1012.9
20260507221038 14 303 6.4 9.7 0.00 0.10 0.10 48 1012.7
20260507220535 14 291 8.0 9.7 0.00 0.10 0.10 48 1012.9
20260507220032 14 287 9.7 12.9 0.00 0.10 0.10 48 1012.7
20260507215528 14 322 8.0 14.5 0.00 0.10 0.10 48 1012.6
20260507215026 14 281 11.3 20.9 0.00 0.10 0.10 45 1012.7
20260507214523 14 311 6.4 11.3 0.00 0.10 0.10 47 1012.7
20260507214019 14 323 6.4 11.3 0.00 0.10 0.10 49 1012.4
20260507213515 14 72 9.7 16.1 0.00 0.10 0.10 46 1012.5
20260507213013 14 306 6.4 9.7 0.00 0.10 0.10 48 1012.4
20260507212508 15 303 9.7 12.9 0.00 0.10 0.10 49 1012.4
20260507212005 15 306 4.8 6.4 0.00 0.10 0.10 52 1012.4
20260507211502 14 307 3.2 11.3 0.00 0.10 0.10 49 1012.3
20260507210958 15 272 9.7 17.7 0.00 0.10 0.10 46 1012.1
20260507210455 14 313 6.4 12.9 0.00 0.10 0.10 46 1012.4
20260507205952 15 287 8.0 12.9 0.00 0.10 0.10 49 1012.3
20260507205449 14 14 0.0 12.9 0.00 0.10 0.10 51 1012.3
20260507204945 15 298 3.2 6.4 0.00 0.10 0.10 48 1012.1
20260507204442 15 315 6.4 9.7 0.00 0.10 0.10 48 1011.9
20260507203940 15 307 6.4 11.3 0.00 0.10 0.10 46 1011.9
20260507203437 15 252 6.4 11.3 0.00 0.10 0.10 49 1012.0
20260507202933 16 268 6.4 11.3 0.00 0.10 0.10 51 1012.1
20260507202430 15 306 3.2 11.3 0.00 0.10 0.10 47 1012.1
20260507201926 16 292 4.8 11.3 0.00 0.10 0.10 48 1012.1
20260507201421 16 356 3.2 14.5 0.00 0.10 0.10 47 1011.9
20260507200919 16 262 11.3 17.7 0.00 0.10 0.10 45 1012.0
20260507200414 16 301 3.2 11.3 0.00 0.10 0.10 46 1012.3
20260507195910 15 298 3.2 6.4 0.00 0.10 0.10 50 1012.5
20260507195408 15 330 6.4 9.7 0.00 0.10 0.10 55 1012.5
20260507194905 14 312 9.7 12.9 0.00 0.10 0.10 50 1012.8
20260507194401 14 310 4.8 6.4 0.00 0.10 0.10 50 1012.9
20260507193857 14 51 3.2 9.7 0.00 0.10 0.10 54 1012.7
20260507193355 15 316 8.0 12.9 0.00 0.10 0.10 49 1012.8
20260507192851 16 292 8.0 12.9 0.00 0.10 0.10 46 1012.7
20260507192347 15 295 4.8 22.5 0.00 0.10 0.10 50 1012.7
20260507191844 15 309 4.8 12.9 0.00 0.10 0.10 48 1012.8
20260507191340 16 35 3.2 6.4 0.00 0.10 0.10 49 1012.7
20260507190837 15 312 12.9 16.1 0.00 0.10 0.10 55 1012.9
20260507190335 14 325 1.6 4.8 0.00 0.10 0.10 52 1012.8
20260507185834 14 353 1.6 6.4 0.00 0.10 0.10 53 1012.8
20260507185330 14 50 1.6 11.3 0.00 0.10 0.10 53 1012.9
20260507184827 13 314 8.0 11.3 0.00 0.10 0.10 52 1012.8
20260507184326 15 245 4.8 14.5 0.00 0.10 0.10 50 1013.0
20260507183822 15 309 6.4 16.1 0.00 0.10 0.10 54 1013.0
20260507183319 14 221 0.0 4.8 0.00 0.10 0.10 56 1013.1
20260507182817 13 307 6.4 12.9 0.00 0.10 0.10 54 1013.1
20260507182312 14 262 6.4 9.7 0.00 0.10 0.10 54 1013.3
20260507181809 15 308 9.7 11.3 0.00 0.10 0.10 54 1013.2
20260507181304 14 44 6.4 6.4 0.00 0.10 0.10 52 1013.2
20260507180801 13 305 4.8 11.3 0.00 0.10 0.10 53 1013.0
20260507180258 13 297 4.8 11.3 0.00 0.10 0.10 53 1013.2
20260507175754 13 283 4.8 11.3 0.00 0.10 0.10 51 1013.1
20260507175251 14 294 8.0 12.9 0.00 0.10 0.10 53 1013.2
20260507174748 14 333 8.0 11.3 0.00 0.10 0.10 55 1013.3
20260507174246 15 249 9.7 12.9 0.00 0.10 0.10 54 1013.2
20260507173744 15 250 6.4 12.9 0.00 0.10 0.10 56 1013.2
20260507173241 15 280 6.4 11.3 0.00 0.10 0.10 60 1013.3
20260507172737 15 273 8.0 12.9 0.00 0.10 0.10 57 1013.4
20260507172234 15 309 3.2 12.9 0.00 0.10 0.10 54 1013.5
20260507171734 15 303 6.4 11.3 0.00 0.10 0.10 53 1013.6
20260507171232 15 298 3.2 11.3 0.00 0.10 0.10 57 1013.4
20260507170728 14 225 3.2 4.8 0.00 0.10 0.10 60 1013.7
20260507170225 14 281 4.8 11.3 0.00 0.10 0.10 53 1013.7
20260507165721 14 301 6.4 6.4 0.00 0.10 0.10 53 1013.8
20260507165217 13 335 4.8 4.8 0.00 0.10 0.10 55 1014.0
20260507164713 14 43 3.2 4.8 0.00 0.10 0.10 54 1014.0
20260507164211 12 44 0.0 3.2 0.00 0.10 0.10 63 1014.0
20260507163708 13 41 3.2 6.4 0.00 0.10 0.10 61 1014.1
20260507163206 13 300 3.2 3.2 0.00 0.10 0.10 60 1014.1
20260507162702 13 275 4.8 14.5 0.00 0.10 0.10 63 1014.3
20260507162158 13 303 4.8 6.4 0.00 0.10 0.10 63 1014.1
20260507161654 13 271 1.6 6.4 0.00 0.10 0.10 65 1014.2
20260507161150 13 300 6.4 9.7 0.00 0.10 0.10 59 1014.3
20260507160647 13 259 4.8 6.4 0.00 0.10 0.10 62 1014.3
20260507160144 12 272 1.6 4.8 0.00 0.10 0.10 62 1014.6
20260507155639 13 61 1.6 14.5 0.00 0.10 0.10 68 1014.5
20260507155136 13 287 6.4 11.3 0.00 0.10 0.10 63 1014.7
20260507154633 13 278 9.7 14.5 0.00 0.10 0.10 64 1014.6
20260507154131 13 266 6.4 11.3 0.00 0.10 0.10 65 1014.3
20260507153626 13 261 0.0 3.2 0.00 0.10 0.10 64 1014.2
20260507153123 13 288 3.2 11.3 0.00 0.10 0.10 61 1014.3
20260507152620 12 32 3.2 4.8 0.00 0.10 0.10 64 1014.5
20260507152116 12 308 3.2 6.4 0.00 0.10 0.10 67 1014.5
20260507151612 13 276 0.0 3.2 0.00 0.10 0.10 71 1014.5
20260507151109 12 306 4.8 6.4 0.00 0.10 0.10 67 1014.8
20260507150606 13 333 0.0 6.4 0.00 0.10 0.10 67 1014.7
20260507145557 12 307 6.4 6.4 0.00 0.10 0.10 70 1014.8
20260507145056 12 242 1.6 3.2 0.00 0.10 0.10 68 1015.0
20260507144552 12 298 3.2 4.8 0.00 0.10 0.10 71 1014.9
20260507144050 13 297 1.6 4.8 0.00 0.10 0.10 72 1015.1
20260507143546 12 139 0.0 1.6 0.00 0.10 0.10 72 1015.2
20260507143044 11 18 0.0 4.8 0.00 0.10 0.10 68 1015.2
20260507142539 10 305 0.0 3.2 0.00 0.10 0.10 79 1015.4
20260507142036 10 259 3.2 6.4 0.00 0.10 0.10 81 1015.4
20260507141532 11 234 0.0 4.8 0.00 0.10 0.10 81 1015.5
20260507141029 11 94 0.0 4.8 0.00 0.10 0.10 87 1015.5
20260507140526 10 4 0.0 1.6 0.00 0.10 0.10 86 1015.6
20260507140023 10 10 1.6 1.6 0.00 0.10 0.10 90 1015.7
20260507135520 10 296 1.6 1.6 0.00 0.10 0.10 90 1015.6
20260507135017 10 87 0.0 0.0 0.00 0.10 0.10 89 1015.8
20260507134514 10 216 0.0 0.0 0.00 0.10 0.10 91 1015.8
20260507134009 10 220 0.0 0.0 0.00 0.10 0.10 89 1015.9
20260507133506 10 37 1.6 1.6 0.00 0.10 0.10 91 1016.0
20260507133004 9 147 0.0 1.6 0.00 0.10 0.10 93 1015.8
20260507132500 9 190 0.0 0.0 0.00 0.10 0.10 91 1015.9
20260507131956 9 195 0.0 1.6 0.00 0.10 0.10 92 1015.9
20260507131454 9 240 0.0 0.0 0.00 0.10 0.10 93 1016.0
20260507130950 8 2 0.0 0.0 0.00 0.10 0.10 93 1015.9
20260507130447 8 58 1.6 1.6 0.00 0.10 0.10 93 1015.9
20260507125946 8 270 0.0 0.0 0.00 0.10 0.10 95 1015.9
20260507125444 8 163 0.0 1.6 0.00 0.10 0.10 94 1015.9
20260507124941 8 149 0.0 1.6 0.00 0.10 0.10 95 1015.9
20260507124437 8 162 0.0 1.6 0.00 0.10 0.10 96 1016.0
20260507123936 8 123 0.0 0.0 0.00 0.10 0.10 95 1016.0
20260507123433 8 13 0.0 0.0 0.00 0.10 0.10 97 1016.1
20260507122929 8 319 0.0 0.0 0.00 0.10 0.10 98 1016.1
20260507122424 8 348 0.0 0.0 0.00 0.10 0.10 99 1016.0
20260507121921 7 308 0.0 0.0 0.00 0.10 0.10 99 1016.0
20260507121416 7 307 0.0 0.0 0.00 0.10 0.10 99 1016.1
20260507120913 7 343 0.0 0.0 0.00 0.10 0.10 99 1016.0
20260507120409 7 24 0.0 0.0 0.00 0.10 0.10 99 1016.1
20260507115906 7 29 0.0 0.0 0.00 0.10 0.10 99 1015.8
20260507115402 7 29 0.0 0.0 0.00 0.10 0.10 99 1015.7
20260507114857 7 30 0.0 0.0 0.00 0.10 0.10 99 1015.8
20260507114354 7 35 0.0 0.0 0.00 0.10 0.10 99 1015.6
20260507113852 7 43 0.0 0.0 0.00 0.10 0.10 99 1015.7
20260507113349 7 50 0.0 0.0 0.00 0.10 0.10 99 1015.5
20260507112846 7 18 0.0 0.0 0.00 0.10 0.10 99 1015.5
20260507112343 7 9 0.0 0.0 0.00 0.10 0.10 99 1015.4
20260507111841 7 345 0.0 0.0 0.00 0.10 0.10 99 1015.3
20260507111338 7 25 0.0 0.0 0.00 0.10 0.10 99 1015.2
20260507110833 7 26 0.0 0.0 0.00 0.10 0.10 99 1015.0
20260507110330 7 31 0.0 0.0 0.00 0.10 0.10 99 1015.3
20260507105827 7 32 0.0 0.0 0.00 0.10 0.10 99 1015.1
20260507105323 7 32 0.0 0.0 0.00 0.10 0.10 99 1015.2
20260507104820 7 32 0.0 0.0 0.00 0.10 0.10 99 1015.2
20260507104317 8 34 0.0 0.0 0.00 0.10 0.10 99 1015.0
20260507103813 8 56 0.0 0.0 0.00 0.10 0.10 99 1015.3
20260507103309 7 82 0.0 0.0 0.00 0.10 0.10 99 1015.1
20260507102806 7 115 0.0 0.0 0.00 0.10 0.10 99 1014.9
20260507102306 7 115 0.0 0.0 0.00 0.10 0.10 99 1015.0
20260507101759 7 115 0.0 0.0 0.00 0.10 0.10 99 1015.0
20260507101254 8 115 0.0 0.0 0.00 0.10 0.10 99 1014.7
20260507100751 8 44 0.0 0.0 0.00 0.10 0.10 99 1014.9
20260507100250 8 108 0.0 0.0 0.00 0.10 0.10 99 1014.8
20260507095747 8 124 0.0 0.0 0.00 0.10 0.10 99 1014.9
20260507095243 8 124 0.0 0.0 0.00 0.10 0.10 99 1014.6
20260507094740 8 139 0.0 0.0 0.00 0.10 0.10 99 1014.7
20260507094237 8 175 0.0 0.0 0.00 0.10 0.10 99 1014.7
20260507093734 7 173 0.0 0.0 0.00 0.10 0.10 99 1014.5
20260507093232 7 148 0.0 3.2 0.00 0.10 0.10 99 1014.8
20260507092730 7 108 1.6 1.6 0.00 0.10 0.10 99 1014.6
20260507092226 8 106 0.0 1.6 0.00 0.10 0.10 99 1014.6
20260507091723 8 129 0.0 0.0 0.00 0.10 0.10 99 1014.6
20260507091219 8 126 0.0 0.0 0.00 0.10 0.10 99 1014.7
20260507090719 8 131 0.0 0.0 0.00 0.10 0.10 99 1014.7
20260507090216 8 152 0.0 0.0 0.00 0.10 0.10 99 1014.7
20260507085713 8 181 0.0 0.0 0.00 0.10 0.10 99 1014.7
20260507085210 8 101 0.0 0.0 0.00 0.10 0.10 99 1014.6
20260507084707 7 356 0.0 0.0 0.00 0.10 0.10 99 1014.5
20260507084203 7 356 0.0 0.0 0.00 0.10 0.10 99 1014.5
20260507083701 8 356 0.0 0.0 0.00 0.10 0.10 99 1014.6
20260507083157 8 350 0.0 0.0 0.18 0.10 0.10 99 1014.7
20260507082653 8 350 1.6 1.6 0.18 0.10 0.10 99 1014.7
20260507082149 8 352 1.6 3.2 0.00 0.08 0.08 99 1014.8
20260507081647 8 12 0.0 0.0 0.13 0.08 0.08 99 1014.8
20260507081143 8 319 0.0 3.2 0.00 0.05 0.05 99 1015.0
20260507080639 8 303 0.0 1.6 0.00 0.05 0.05 99 1014.9
20260507080137 8 298 0.0 1.6 0.00 0.05 0.05 99 1015.0
20260507075637 8 289 0.0 3.2 0.00 0.05 0.05 99 1015.0
20260507075133 8 295 0.0 0.0 0.00 0.05 0.05 99 1014.8
20260507074630 8 292 1.6 1.6 0.00 0.05 0.05 99 1014.7
20260507074128 8 297 0.0 3.2 0.18 0.05 0.05 99 1014.9
20260507073624 8 300 4.8 4.8 0.18 0.05 0.05 99 1014.6
20260507073121 8 286 1.6 4.8 0.00 0.03 0.03 99 1014.7
20260507072619 8 295 1.6 3.2 0.00 0.03 0.03 99 1014.5
20260507072115 8 271 0.0 1.6 0.00 0.03 0.03 99 1014.5
20260507071613 8 224 0.0 0.0 0.00 0.03 0.03 99 1014.6
20260507071109 8 206 0.0 0.0 0.00 0.03 0.03 99 1014.7
20260507070607 8 223 0.0 0.0 0.00 0.03 0.03 99 1014.7
20260507070104 8 243 0.0 0.0 0.00 0.03 0.03 99 1014.3
20260507065600 8 213 0.0 0.0 0.00 0.03 0.03 99 1014.7
20260507065057 8 211 0.0 0.0 0.00 0.03 0.03 99 1014.6
20260507064555 8 160 0.0 0.0 0.00 0.03 0.03 99 1014.6
20260507064053 8 201 0.0 0.0 0.00 0.03 0.03 99 1014.5
20260507063550 8 153 0.0 0.0 0.00 0.03 0.03 99 1014.5
20260507063047 8 155 0.0 0.0 0.00 0.03 0.03 99 1014.6
20260507062544 8 152 0.0 1.6 0.00 0.03 0.03 99 1014.6
20260507062041 8 132 0.0 0.0 0.00 0.03 0.03 99 1014.7
20260507061539 8 136 0.0 0.0 0.00 0.03 0.03 99 1014.7
20260507061037 8 148 1.6 1.6 0.00 0.03 0.03 99 1014.7
20260507060534 8 156 0.0 3.2 0.13 0.03 0.03 99 1015.0
20260507060031 8 166 1.6 3.2 0.13 0.03 0.03 99 1015.1
20260507055525 8 176 0.0 0.0 0.00 0.00 0.00 99 1015.1
20260507055022 8 150 0.0 0.0 0.00 0.00 0.00 99 1015.0
20260507054518 8 128 0.0 0.0 0.00 0.00 0.00 99 1015.2
20260507054015 8 125 0.0 0.0 0.00 0.00 0.00 99 1015.2
20260507053513 8 125 0.0 0.0 0.00 0.00 0.00 99 1015.2
20260507053012 8 116 0.0 0.0 0.00 0.00 0.00 99 1015.2
20260507052509 8 117 0.0 0.0 0.00 0.00 0.00 99 1015.3
20260507052005 8 141 0.0 0.0 0.00 0.00 0.00 99 1015.3
20260507051503 8 166 0.0 0.0 0.00 0.00 0.00 99 1015.3
20260507050959 8 185 0.0 0.0 0.00 0.00 0.00 99 1015.3
20260507050456 8 185 0.0 0.0 0.00 0.00 0.00 99 1015.3
20260507045953 8 204 0.0 0.0 0.00 0.00 0.00 99 1015.5
20260507045449 8 189 0.0 1.6 0.00 0.00 0.00 99 1015.3
20260507044947 8 132 0.0 0.0 0.00 0.00 0.00 99 1015.2
20260507044443 8 168 0.0 0.0 0.00 0.00 0.00 99 1015.3
20260507043939 8 168 1.6 3.2 0.00 0.00 0.00 99 1015.4
20260507043436 8 180 0.0 1.6 0.00 0.00 0.00 99 1015.2
20260507042932 8 129 1.6 3.2 0.00 0.00 0.00 99 1015.2
20260507042429 8 122 1.6 1.6 0.00 0.00 0.00 99 1014.9
20260507041925 8 122 0.0 0.0 0.00 0.00 0.00 99 1015.1
20260507041422 8 135 0.0 1.6 0.00 0.00 0.00 99 1015.1
20260507040919 8 130 0.0 0.0 0.00 0.00 0.00 99 1015.2
20260507040415 8 130 0.0 0.0 0.00 1.32 1.32 99 1015.3
20260507035911 8 151 0.0 0.0 0.00 1.32 1.32 99 1015.2
20260507035407 9 102 0.0 0.0 0.00 1.32 1.32 99 1015.2
20260507034904 9 98 0.0 0.0 0.00 1.32 1.32 99 1015.1
20260507034401 9 98 0.0 0.0 0.18 1.32 1.32 99 1015.4